This is the latest recevied weather packets stored in our database for station/object G4KVI. If no packets are shown the sender has not sent any weather packets the latest 10 day(s).
| Time | Temp. | Humidity | Pressure | Rain* | Wind** | Luminosity | Snow |
|---|---|---|---|---|---|---|---|
| 1778095804 | 12.22° C | 50% | 1015.7 hPa | 0 mm | - | 7 W/m² | - |
| 1778095504 | 12.22° C | 50% | 1015.8 hPa | 0 mm | - | 9 W/m² | - |
| 1778095204 | 12.22° C | 49% | 1015.9 hPa | 0 mm | - | 11 W/m² | - |
| 1778094904 | 12.22° C | 49% | 1015.7 hPa | 0 mm | - | 13 W/m² | - |
| 1778094604 | 12.22° C | 49% | 1015.8 hPa | 0 mm | - | 15 W/m² | - |
| 1778094304 | 12.78° C | 49% | 1015.9 hPa | 0 mm | - | 17 W/m² | - |
| 1778094004 | 12.78° C | 49% | 1015.7 hPa | 0 mm | - | 19 W/m² | - |
| 1778093704 | 12.78° C | 48% | 1015.9 hPa | 0 mm | - | 26 W/m² | - |
| 1778093404 | 12.78° C | 48% | 1015.7 hPa | 0 mm | - | 24 W/m² | - |
| 1778093104 | 12.78° C | 47% | 1015.8 hPa | 0 mm | - | 27 W/m² | - |
| 1778092804 | 13.33° C | 47% | 1015.7 hPa | 0 mm | - | 31 W/m² | - |
| 1778092504 | 13.33° C | 48% | 1015.7 hPa | 0 mm | - | 34 W/m² | - |
| 1778092204 | 13.33° C | 46% | 1015.7 hPa | 0 mm | - | 44 W/m² | - |
| 1778091904 | 13.33° C | 46% | 1015.8 hPa | 0 mm | - | 53 W/m² | - |
| 1778091604 | 13.33° C | 48% | 1015.6 hPa | 0 mm | - | 61 W/m² | - |
| 1778091304 | 13.33° C | 46% | 1015.7 hPa | 0 mm | - | 56 W/m² | - |
| 1778091004 | 13.33° C | 46% | 1015.5 hPa | 0 mm | - | 56 W/m² | - |
| 1778090704 | 13.33° C | 47% | 1015.7 hPa | 0 mm | - | 52 W/m² | - |
| 1778090404 | 13.33° C | 46% | 1015.5 hPa | 0 mm | - | 52 W/m² | - |
| 1778090104 | 13.33° C | 46% | 1015.4 hPa | 0 mm | - | 55 W/m² | - |
| 1778089804 | 13.33° C | 46% | 1015.5 hPa | 0 mm | - | 47 W/m² | - |
| 1778089504 | 13.33° C | 46% | 1015.4 hPa | 0 mm | - | 57 W/m² | - |
| 1778089204 | 13.33° C | 45% | 1015.4 hPa | 0 mm | - | 61 W/m² | - |
| 1778088904 | 13.33° C | 46% | 1015.5 hPa | 0 mm | - | 80 W/m² | - |
| 1778088604 | 13.33° C | 47% | 1015.4 hPa | 0 mm | - | 97 W/m² | - |
* Rain latest hour (hover to see other rain measurements)
** Current wind speed in m/s (hover to see current wind gust speed)